User: anonymous   Login
Location: Pine Mountain Observatory
(43.7910°N, 120.9377°W)
Time: 02:14:15
(UTC-07:00)
Language:

Cosmos 1867 - Orbit

View from above orbital plane
View from above orbital plane
View from above satellite
View from above satellite

Ground track
Ground track

The orbit data is extracted from the following two-line orbital elements,

1 18187U 87060A   15186.84945630 -.00000085  00000-0  58571-5 0  9991
2 18187 065.0113 062.3191 0016418 282.1658 077.7587 14.31059099462067
Epoch (UTC): 05 July 2015 20:23:13
Eccentricity: 0.0016418
inclination: 65.0113°
perigee height: 776 km
apogee height: 800 km
right ascension of ascending node: 62.3191°
argument of perigee: 282.1658°
revolutions per day: 14.31059099
mean anomaly at epoch: 77.7587°
orbit number at epoch: 46206

The dashed part of the orbit path shows where the satellite is in the earth's shadow,  

DLR